Weather History for Lufkin, TX

Change the Weather History Date:

Monday, March 31, 2014

  Actual Average Record
Temperature  
Mean Temperature 65 °F 63 °F  
Max Temperature 82 °F 75 °F 97 °F (1946)
Min Temperature 48 °F 51 °F 25 °F (1987)
Degree Days  
Heating Degree Days 0 4  
Month to date heating degree days 250 211  
Since 1 July heating degree days 2053 1844  
Cooling Degree Days 0 2  
Month to date cooling degree days 17 41  
Year to date cooling degree days 35 60  
Growing Degree Days 15 (Base 50)    
Moisture  
Dew Point 52 °F    
Average Humidity 65    
Maximum Humidity 89    
Minimum Humidity 40    
Precipitation  
Precipitation 0.00 in 0.12 in 1.97 in (1933)
Month to date precipitation 2.55 3.78  
Year to date precipitation 5.37 11.83  
Snow  
Snow 0.00 in - - ()
Month to date snowfall 0.0  
Since 1 July snowfall 3.2  
Snow Depth 0.00 in    
Sea Level Pressure  
Sea Level Pressure 30.00 in    
Wind  
Wind Speed 10 mph (SSE)    
Max Wind Speed 20 mph    
Max Gust Speed 28 mph    
Visibility 10 miles    
Events      
T = Trace of Precipitation, MM = Missing Value Source: NWS Daily Summary

Daily Weather History Graph

Daily Weather History Graph

Search for Another Location

Airport:

Trip Planner

Search our weather history database for the weather conditions in past years. The results will help you decide how hot, cold, wet, or windy it might be!

Date:

Astronomy

Mar. 31, 2014 Rise Set
Actual Time 7:08 AM CDT 7:37 PM CDT
Civil Twilight 6:44 AM CDT 8:02 PM CDT
Nautical Twilight 6:16 AM CDT 8:30 PM CDT
Astronomical Twilight 5:47 AM CDT 8:59 PM CDT
Moon 7:36 AM CDT (3/31) 8:51 PM CDT (3/31)
Length of Visible Light 13h 17m
Length of Day
12h 28m
New Moon, 1% of the Moon is Illuminated
Mar 31
New Moon
Apr 7
First Quarter
Apr 15
Full
Apr 22
Last Quarter
Apr 29
New

Hourly Weather History & Observations

Time (CDT) Temp. Heat Index Dew Point Humidity Pressure Visibility Wind Dir Wind Speed Gust Speed Precip Events Conditions
12:53 AM 53.1 °F - 45.0 °F 74% 30.08 in 10.0 mi SSE 5.8 mph - N/A   Clear
1:53 AM 52.0 °F - 45.0 °F 77% 30.07 in 10.0 mi SSE 3.5 mph - N/A   Clear
2:53 AM 51.1 °F - 45.0 °F 80% 30.04 in 10.0 mi SE 5.8 mph - N/A   Clear
3:53 AM 50.0 °F - 45.0 °F 83% 30.03 in 10.0 mi SSE 4.6 mph - N/A   Clear
4:53 AM 48.0 °F - 45.0 °F 89% 30.01 in 10.0 mi ESE 5.8 mph - N/A   Clear
5:53 AM 50.0 °F - 46.0 °F 86% 30.00 in 10.0 mi SE 5.8 mph - N/A   Clear
6:53 AM 50.0 °F - 46.0 °F 86% 30.01 in 8.0 mi SE 5.8 mph - N/A   Clear
7:53 AM 52.0 °F - 48.9 °F 89% 30.02 in 7.0 mi SE 6.9 mph - N/A   Clear
8:20 AM 54.0 °F - 50.0 °F 86% 30.03 in 9.0 mi SE 6.9 mph - N/A   Mostly Cloudy
8:53 AM 55.9 °F - 52.0 °F 87% 30.03 in 10.0 mi SE 8.1 mph - N/A   Overcast
9:22 AM 59.0 °F - 54.0 °F 83% 30.04 in 10.0 mi SSE 8.1 mph - N/A   Scattered Clouds
9:53 AM 62.1 °F - 54.0 °F 75% 30.04 in 10.0 mi SSE 10.4 mph - N/A   Mostly Cloudy
10:53 AM 69.1 °F - 55.9 °F 63% 30.02 in 10.0 mi South 16.1 mph 21.9 mph N/A   Mostly Cloudy
11:18 AM 71.1 °F - 55.9 °F 59% 30.03 in 10.0 mi SSW 11.5 mph - N/A   Scattered Clouds
11:53 AM 73.0 °F - 55.9 °F 55% 30.02 in 10.0 mi SSE 13.8 mph - N/A   Clear
12:53 PM 75.9 °F - 54.0 °F 46% 30.01 in 10.0 mi South 12.7 mph - N/A   Clear
1:53 PM 78.1 °F - 54.0 °F 43% 29.98 in 10.0 mi SSE 13.8 mph 21.9 mph N/A   Clear
2:53 PM 81.0 °F 80.7 °F 55.0 °F 41% 29.95 in 10.0 mi South 18.4 mph 25.3 mph N/A   Clear
3:53 PM 82.0 °F 81.4 °F 55.0 °F 39% 29.93 in 10.0 mi South 16.1 mph 23.0 mph N/A   Clear
4:53 PM 80.1 °F 80.1 °F 55.0 °F 42% 29.93 in 10.0 mi South 16.1 mph 25.3 mph N/A   Clear
5:53 PM 78.1 °F - 55.9 °F 46% 29.93 in 10.0 mi SSE 11.5 mph 19.6 mph N/A   Clear
6:53 PM 75.9 °F - 55.9 °F 50% 29.95 in 10.0 mi SSE 11.5 mph - N/A   Clear
7:53 PM 72.0 °F - 55.9 °F 57% 29.96 in 10.0 mi South 11.5 mph - N/A   Clear
8:53 PM 69.1 °F - 57.0 °F 65% 29.97 in 10.0 mi SSE 9.2 mph - N/A   Clear
9:53 PM 66.9 °F - 57.0 °F 70% 29.99 in 10.0 mi SSE 9.2 mph - N/A   Clear
10:53 PM 66.0 °F - 57.9 °F 75% 29.99 in 10.0 mi SSE 9.2 mph - N/A   Clear
11:53 PM 64.0 °F - 57.9 °F 80% 30.01 in 10.0 mi SSE 4.6 mph - N/A   Overcast